TimeEDT,TemperatureF,Dew PointF,Humidity,Sea Level PressureIn,VisibilityMPH,Wind Direction,Wind SpeedMPH,Gust SpeedMPH,PrecipitationIn,Events,Conditions,WindDirDegrees,DateUTC
12:56 AM,68.0,68.0,100,30.15,10.0,East,3.5,-,0.00,,Mostly Cloudy,80,2014-05-26 04:56:00
1:56 AM,68.0,68.0,100,30.15,10.0,East,5.8,-,N/A,,Clear,80,2014-05-26 05:56:00
2:56 AM,66.9,66.9,100,30.16,8.0,ESE,3.5,-,N/A,,Partly Cloudy,120,2014-05-26 06:56:00
3:56 AM,66.9,66.9,100,30.16,8.0,Calm,Calm,-,N/A,,Partly Cloudy,0,2014-05-26 07:56:00
4:56 AM,64.9,64.9,100,30.17,5.0,Calm,Calm,-,N/A,,Partly Cloudy,0,2014-05-26 08:56:00
5:56 AM,64.9,64.9,100,30.18,6.0,Calm,Calm,-,N/A,,Partly Cloudy,0,2014-05-26 09:56:00
6:11 AM,64.0,64.0,100,30.19,1.8,SSW,3.5,-,N/A,,Partly Cloudy,200,2014-05-26 10:11:00
6:16 AM,63.0,63.0,100,30.19,1.0,South,3.5,-,N/A,,Mist,190,2014-05-26 10:16:00
6:18 AM,63.0,63.0,100,30.19,0.5,South,3.5,-,N/A,Fog,Fog,180,2014-05-26 10:18:00
6:28 AM,64.0,64.0,100,30.19,0.2,South,3.5,-,N/A,Fog,Fog,190,2014-05-26 10:28:00
6:43 AM,63.0,63.0,100,30.20,0.2,Calm,Calm,-,N/A,Fog,Fog,0,2014-05-26 10:43:00
6:56 AM,64.0,64.0,100,30.19,0.2,Calm,Calm,-,N/A,Fog,Fog,0,2014-05-26 10:56:00
7:22 AM,64.9,64.9,100,30.21,0.2,Calm,Calm,-,N/A,Fog,Fog,0,2014-05-26 11:22:00
7:45 AM,64.9,64.9,100,30.22,0.2,Calm,Calm,-,N/A,Fog,Fog,0,2014-05-26 11:45:00
7:54 AM,66.2,66.2,100,30.22,0.8,Calm,Calm,-,N/A,,Mist,0,2014-05-26 11:54:00
7:56 AM,66.0,66.0,100,30.22,0.5,Calm,Calm,-,N/A,Fog,Fog,0,2014-05-26 11:56:00
8:15 AM,66.0,66.0,100,30.22,1.0,Calm,Calm,-,N/A,,Scattered Clouds,0,2014-05-26 12:15:00
8:51 AM,69.8,69.8,100,30.23,3.0,SSE,3.5,-,N/A,,Scattered Clouds,160,2014-05-26 12:51:00
8:56 AM,69.1,69.1,100,30.23,6.0,Variable,3.5,-,N/A,,Scattered Clouds,0,2014-05-26 12:56:00
9:56 AM,73.0,69.1,87,30.24,10.0,SSW,3.5,-,N/A,,Mostly Cloudy,200,2014-05-26 13:56:00
10:56 AM,77.0,68.0,74,30.24,10.0,South,5.8,-,N/A,,Mostly Cloudy,180,2014-05-26 14:56:00
11:56 AM,81.0,66.9,62,30.22,10.0,Variable,6.9,-,N/A,,Scattered Clouds,0,2014-05-26 15:56:00
12:56 PM,82.9,66.9,58,30.20,10.0,Variable,5.8,-,N/A,,Mostly Cloudy,0,2014-05-26 16:56:00
1:56 PM,84.2,66.2,55,30.19,10.0,SW,8.1,-,N/A,,Scattered Clouds,220,2014-05-26 17:56:00
2:56 PM,86.0,66.0,51,30.15,10.0,North,-9999.0,-,N/A,,Scattered Clouds,0,2014-05-26 18:56:00
3:56 PM,88.0,66.0,48,30.12,10.0,SW,10.4,-,N/A,,Scattered Clouds,220,2014-05-26 19:56:00
4:56 PM,89.6,66.2,46,30.11,10.0,SSW,8.1,-,N/A,,Scattered Clouds,210,2014-05-26 20:56:00
5:56 PM,88.0,66.0,48,30.09,10.0,South,9.2,-,N/A,,Scattered Clouds,170,2014-05-26 21:56:00
6:56 PM,87.1,66.0,49,30.08,10.0,South,5.8,-,N/A,,Scattered Clouds,180,2014-05-26 22:56:00
7:56 PM,82.9,70.0,65,30.10,10.0,South,12.7,-,N/A,,Scattered Clouds,190,2014-05-26 23:56:00
8:56 PM,79.0,69.1,72,30.11,10.0,South,5.8,-,N/A,,Scattered Clouds,190,2014-05-27 00:56:00
9:56 PM,77.0,70.0,79,30.13,10.0,SSW,6.9,-,N/A,,Clear,200,2014-05-27 01:56:00
10:56 PM,75.9,70.0,82,30.14,10.0,South,8.1,-,N/A,,Clear,190,2014-05-27 02:56:00
11:56 PM,73.9,70.0,87,30.14,10.0,SSW,4.6,-,N/A,,Clear,200,2014-05-27 03:56:00